Pasco, WA
on Saturday, November 3, 2012

Saturday
Previous Day Next Day
Daily Summary
 ActualAverageRecord
Temperature
Mean Temperature °F 46°F  
Max Temperature 62°F 57°F 67°F (2007)
Min Temperature 43°F 35°F 13°F (2002)
Degree Days
Heating Degree Days 12 19  
Month to date heating degree days 40 57  
Since 1 July heating degree days 484 575  
Cooling Degree Days 0 0  
Month to date cooling degree days 0 0  
Year to date cooling degree days 788 710  
Growing Degree Days2 (Base °F )  
Moisture
Dew Point 48°F   
Average Humidity 82    
Maximum Humidity 100    
Minimum Humidity 64    
Precipitation
Precipitation T in 0.02 in 0.35 in (2004)
Month to date precipitation 0.08 0.08  
Year to date precipitation 7.54 6.61  
Snow
Snow 0.00 in in in ()
Snow Depth 0.00 in   
Wind
Wind Speed 3 mph   
Max Wind Speed 18 mph   
Max Gust Speed 22 mph   
Visibility 9 miles   
Events     

Key: T is trace of precipitation, MM is missing value
Source: NWS Daily Summary
Time(PDT)TemperatureDew PointHumidity Pressure Visibility Wind DirectionWind SpeedGust SpeedPrecipitationEvents Conditions
12:53 AM 45.0°F 44.1°F 97% 30.05 in 8.0 miles Calm Calm - N/A   Mostly Cloudy
1:53 AM 45.0°F 44.1°F 97% 30.05 in 7.0 miles Calm Calm - N/A   Overcast
2:53 AM 44.1°F 43.0°F 96% 30.05 in 7.0 miles Calm Calm - N/A   Mostly Cloudy
3:53 AM 45.0°F 43.0°F 93% 30.04 in 7.0 miles East 4.6 mph - N/A   Clear
4:53 AM 44.1°F 43.0°F 96% 30.06 in 8.0 miles Calm Calm - N/A   Partly Cloudy
5:53 AM 45.0°F 44.1°F 97% 30.07 in 6.0 miles Calm Calm - N/A   Overcast
6:53 AM 46.0°F 45.0°F 96% 30.07 in 6.0 miles North 3.5 mph - N/A   Overcast
7:53 AM 48.0°F 46.0°F 93% 30.08 in 7.0 miles Calm Calm - N/A   Overcast
8:53 AM 48.9°F 46.9°F 93% 30.09 in 7.0 miles Calm Calm - 0.00 in   Overcast
9:53 AM 51.1°F 48.0°F 89% 30.09 in 8.0 miles NE 3.5 mph - N/A   Overcast
10:53 AM 53.1°F 48.9°F 86% 30.10 in 10.0 miles SE 9.2 mph - N/A   Overcast
11:53 AM 55.0°F 48.9°F 80% 30.09 in 10.0 miles SE 6.9 mph - N/A   Overcast
12:53 PM 57.0°F 50.0°F 77% 30.09 in 10.0 miles Calm Calm - N/A   Overcast
1:53 PM 57.9°F 50.0°F 75% 30.08 in 10.0 miles SE 4.6 mph - N/A   Clear
2:53 PM 60.1°F 48.9°F 67% 30.09 in 10.0 miles Calm Calm - N/A   Clear
3:53 PM 60.1°F 50.0°F 69% 30.10 in 10.0 miles SW 11.5 mph - N/A   Clear
4:53 PM 60.1°F 50.0°F 69% 30.11 in 10.0 miles SW 12.7 mph - N/A   Clear
5:53 PM 59.0°F 50.0°F 72% 30.11 in 10.0 miles SSW 10.4 mph - N/A   Clear
6:53 PM 60.1°F 50.0°F 69% 30.13 in 10.0 miles SSW 5.8 mph - N/A   Clear
7:53 PM 57.9°F 50.0°F 75% 30.12 in 10.0 miles South 3.5 mph - N/A   Clear
8:53 PM 61.0°F 48.9°F 64% 30.13 in 10.0 miles SW 13.8 mph - N/A   Clear
9:53 PM 61.0°F 50.0°F 67% 30.14 in 10.0 miles SW 10.4 mph - N/A   Clear
10:53 PM 57.0°F 50.0°F 77% 30.16 in 10.0 miles ENE 4.6 mph - N/A   Scattered Clouds
11:53 PM 59.0°F 50.0°F 72% 30.17 in 10.0 miles Calm Calm - N/A   Mostly Cloudy
Moon Phase
Nov. 03 Nov. 06 Nov. 13 Nov. 20 Nov. 28
Sunrise:07:41 AM (PDT) Moon Rise:09:18 PM (PDT)11/3
Sunset:05:38 PM (PDT) Moon Set:11:54 AM (PDT)11/3

Copyright © 2014 The Weather Underground, Inc.